Regional Weather Roundup
Issued by NWS

Home | Current Version | Previous Version | Text Only | Print | Product List | Glossary On
Versions: 1 2 3 4 5 6 7 8 9 10 11 12 13 14 15 16 17 18 19 20 21 22 23 24 25 26 27 28 29 30 31 32 33 34 35 36 37 38 39 40 41 42 43 44 45 46 47 48 49 50
000
ASUS43 KLSX 190857
RWRMO

WEATHER SUMMARY FOR MISSOURI
NATIONAL WEATHER SERVICE SPRINGFIELD MO
300 AM CST SUN FEB 19 2017

NOTE: "FAIR" INDICATES FEW OR NO CLOUDS BELOW 12,000 FEET WITH NO
       SIGNIFICANT WEATHER AND/OR OBSTRUCTIONS TO VISIBILITY.
       CURRENT SKY AND/OR WEATHER CONDITIONS ARE NOT AVAILABLE FOR
       CHILLICOTHE AND FARMINGTON.

MOZ001>031-035>038-043-044-053-054-191000-
...NORTHERN AND WESTERN MISSOURI...

CITY           SKY/WX    TMP DP  RH WIND       PRES   REMARKS
KANSAS CTY INT CLEAR     48  47  96 S7        29.90R
LEE`S SUMMIT   CLEAR     50  49  96 SW3       29.91S
ST JOSEPH      CLEAR     38  34  85 CALM      29.89S
CHILLICOTHE      N/A     40  35  83 CALM      29.93R

$$
MOZ066>068-077>081-088>096-101>105-191000-
...SOUTHWEST MISSOURI...

CITY           SKY/WX    TMP DP  RH WIND       PRES   REMARKS
SPRINGFIELD    CLEAR     46  44  93 SE9       29.92R
JOPLIN         CLEAR     47  47 100 S5        29.93R FOG

$$
MOZ032>034-039>042-045>050-055>058-069>072-191000-
...CENTRAL MISSOURI...

CITY           SKY/WX    TMP DP  RH WIND       PRES   REMARKS
COLUMBIA       NOT AVBL
JEFFERSON CITY CLEAR     39  38  96 SE3       29.94R
ROLLA          FOG       48  48 100 S9        29.93S VSB 1/4
SEDALIA        CLEAR     52  48  86 CALM      29.93R
WARRENSBURG      N/A     46  45  93 S3        29.92R FOG

$$
MOZ051-052-059>065-191000-
...EAST CENTRAL MISSOURI...

CITY           SKY/WX    TMP DP  RH WIND       PRES   REMARKS
ST LOUIS INTL  CLEAR     50  47  89 CALM      29.95R

$$
MOZ072>076-082>087-097>100-106>115-191000-
...SOUTH CENTRAL AND SOUTHEAST MISSOURI...

CITY           SKY/WX    TMP DP  RH WIND       PRES   REMARKS
CAPE GIRARDEAU FOG       50  49  96 SW6       29.98S VSB 1/4
POPLAR BLUFF   FOG       44  44 100 CALM      29.97F VSB 1/2
WEST PLAINS    FOG       43  42  97 CALM      29.95F VSB 1/4

$$



USA.gov is the U.S. government's official web portal to all federal, state and local government web resources and services.